Powrót do katalogu

ATLAS 5 CENTAUR DEB

AktywnyHEO
NORAD 53520·DEBRIS·🇺🇸 United States

Wystrzelony Oct 17, 2018 z Cape Canaveral Space Force Station

Loading…

Następne Przeloty (najbliższe 24 godziny)

TLE

Starzejące sięSource: Space-Track

Epoka: Sep 2, 2026, 09:45 UTC

1 53520U 18079HB  26245.40658742 -.00000154  00000-0  00000-0 0  9996
2 53520  13.6634  29.3229 4673326 321.4537  12.9519  1.80103885 31929

Śledź ATLAS 5 CENTAUR DEB w czasie rzeczywistym z AllMySat

Download on the App Store